This demonstration page uses our WeatherBlox Daily Observations layout. Learn more.

40.92945, -100.16068

Hourly Observations for April 10, 2017

Temp ( °F °C ) Dew Point ( °F °C ) Humidity (%) Winds ( mph kmh ) Pressure ( in mb ) Visibility ( mi km ) Precip ( " mm )
12:15 am 00:15 Clear 43 6.1 37 2.5 78 78 WNW 9 15 29.85 1011 10 16.0934 0 0
12:35 am 00:35 Clear 44 6.5 35 1.9 73 73 WNW 15 24 29.85 1011 10 16.0934 0 0
12:55 am 00:55 Clear 45 7 35 1.6 69 69 WNW 17 28 29.85 1011 10 16.0934 0 0
1:15 am 01:15 Clear 44 6.8 34 1.3 68 68 WNW 14 22 29.85 1011 10 16.0934 0 0
1:35 am 01:35 Clear 43 6.3 34 1.1 70 70 WNW 15 24 29.85 1011 10 16.0934 0 0
1:55 am 01:55 Clear 44 6.8 33 0.5 65 65 WNW 20 31 29.88 1012 10 16.0934 0 0
2:15 am 02:15 Clear 43 6 33 0.6 69 69 WNW 17 28 29.88 1012 10 16.0934 0 0
2:35 am 02:35 Clear 43 6.2 32 0 65 65 WNW 21 33 29.88 1012 10 16.0934 0 0
2:55 am 02:55 Clear 43 6 32 0 66 66 WNW 20 31 29.88 1012 10 16.0934 0 0
3:15 am 03:15 Clear 43 6.1 32 -0.2 64 64 WNW 18 30 29.91 1013 10 16.0934 0 0
3:35 am 03:35 Clear 42 5.6 32 -0.2 67 67 WNW 17 28 29.94 1014 10 16.0934 0 0
3:55 am 03:55 Clear 42 5.5 31 -0.5 66 66 W 17 28 29.94 1014 10 16.0934 0 0
4:15 am 04:15 Clear 42 5.5 31 -0.5 66 66 W 16 26 29.94 1014 10 16.0934 0 0
4:35 am 04:35 Clear 41 4.8 31 -0.5 69 69 WNW 18 30 29.94 1014 10 16.0934 0 0
4:55 am 04:55 Clear 41 5 30 -1 66 66 W 18 30 29.94 1014 10 16.0934 0 0
5:15 am 05:15 Clear 40 4.4 31 -0.8 69 69 W 16 26 29.94 1014 10 16.0934 0 0
5:35 am 05:35 Clear 40 4.5 30 -1 68 68 W 15 24 29.94 1014 10 16.0934 0 0
5:55 am 05:55 Clear 39 3.8 31 -0.8 72 72 WNW 14 22 29.94 1014 10 16.0934 0 0
6:15 am 06:15 Clear 39 4 31 -0.8 71 71 W 17 28 29.94 1014 10 16.0934 0 0
6:35 am 06:35 Clear 40 4.5 31 -0.8 69 69 WNW 21 33 29.94 1014 10 16.0934 0 0
6:55 am 06:55 Clear 40 4.3 31 -0.7 70 70 WNW 22 35 29.94 1014 10 16.0934 0 0
7:15 am 07:15 Mostly Cloudy 40 4.5 32 -0.2 72 72 WNW 24 39 29.97 1015 10 16.0934 0 0
7:35 am 07:35 Cloudy 40 4.7 33 0.5 74 74 WNW 23 37 29.97 1015 10 16.0934 0 0
7:55 am 07:55 Cloudy 41 5.1 34 1.1 76 76 WNW 20 31 29.97 1015 10 16.0934 0 0
8:15 am 08:15 Cloudy 42 5.5 34 1.3 75 75 WNW 28 44 30 1016 10 16.0934 0 0
8:35 am 08:35 Cloudy 40 4.7 35 1.4 79 79 NW 32 52 30.03 1017 10 16.0934 0 0
8:55 am 08:55 Cloudy 40 4.3 32 0.2 75 75 NW 31 50 30.06 1018 10 16.0934 0 0
9:15 am 09:15 Cloudy 39 3.9 32 -0.1 75 75 NW 30 48 30.06 1018 10 16.0934 0 0
9:35 am 09:35 Cloudy 39 4.1 32 0 75 75 NNW 28 44 30.09 1019 10 16.0934 0 0
9:55 am 09:55 Mostly Cloudy 39 4.1 31 -0.4 73 73 NNW 30 48 30.09 1019 10 16.0934 0 0
10:15 am 10:15 Mostly Cloudy 40 4.6 32 -0.1 72 72 NNW 26 43 30.09 1019 10 16.0934 0 0
10:35 am 10:35 Cloudy 40 4.2 31 -0.6 71 71 NNW 25 41 30.09 1019 10 16.0934 0 0
10:55 am 10:55 Cloudy 40 4.3 31 -0.5 71 71 NNW 29 46 30.12 1020 10 16.0934 0 0
11:15 am 11:15 Cloudy 41 5.2 32 -0.1 69 69 NW 28 44 30.12 1020 10 16.0934 0 0
11:35 am 11:35 Mostly Cloudy 42 5.5 31 -0.6 65 65 NW 28 44 30.15 1021 10 16.0934 0 0
11:55 am 11:55 Mostly Cloudy 41 4.9 30 -1 66 66 NW 24 39 30.15 1021 10 16.0934 0 0
12:15 pm 12:15 Cloudy 42 5.4 31 -0.3 67 67 NNW 23 37 30.15 1021 10 16.0934 0 0
12:35 pm 12:35 Cloudy 42 5.4 31 -0.6 66 66 NW 23 37 30.18 1022 10 16.0934 0 0
12:55 pm 12:55 Cloudy 42 5.4 31 -0.5 66 66 NW 20 31 30.18 1022 10 16.0934 0 0
1:15 pm 13:15 Cloudy 42 5.5 31 -0.4 66 66 NW 20 31 30.18 1022 10 16.0934 0 0
1:35 pm 13:35 Cloudy 42 5.7 31 -0.4 65 65 NNW 24 39 30.18 1022 10 16.0934 0 0
1:55 pm 13:55 Cloudy 43 6.2 32 -0.2 64 64 NW 20 31 30.18 1022 10 16.0934 0 0
2:15 pm 14:15 Cloudy 45 7.1 32 0 61 61 NW 24 39 30.18 1022 10 16.0934 0 0
2:35 pm 14:35 Cloudy 45 7.3 32 0 60 60 NNW 23 37 30.18 1022 10 16.0934 0 0
2:55 pm 14:55 Mostly Cloudy 47 8.1 33 0.5 59 59 NNW 24 39 30.12 1020 10 16.0934 0 0
3:15 pm 15:15 Partly Cloudy 47 8.4 33 0.5 58 58 NNW 18 30 30.12 1020 10 16.0934 0 0
3:35 pm 15:35 Sunny 47 8.5 34 0.9 59 59 NNW 18 30 30.12 1020 10 16.0934 0 0
3:55 pm 15:55 Sunny 47 8.6 34 1.2 60 60 N 20 31 30.12 1020 10 16.0934 0 0
4:15 pm 16:15 Sunny 48 8.9 35 1.4 60 60 N 21 33 30.12 1020 10 16.0934 0 0
4:35 pm 16:35 Sunny 49 9.5 34 1 56 56 NNW 16 26 30.15 1021 10 16.0934 0 0
4:55 pm 16:55 Sunny 50 9.9 34 1.3 55 55 N 13 20 30.12 1020 10 16.0934 0 0
5:15 pm 17:15 Sunny 50 10 33 0.6 52 52 N 15 24 30.12 1020 10 16.0934 0 0
5:35 pm 17:35 Sunny 50 10.1 34 0.9 53 53 NNW 16 26 30.15 1021 10 16.0934 0 0
5:55 pm 17:55 Sunny 51 10.4 33 0.6 51 51 NNW 13 20 30.15 1021 10 16.0934 0 0
6:15 pm 18:15 Sunny 51 10.6 33 0.6 50 50 NNW 15 24 30.15 1021 10 16.0934 0 0
6:35 pm 18:35 Sunny 51 10.5 33 0.7 51 51 NNW 13 20 30.15 1021 10 16.0934 0 0
6:55 pm 18:55 Sunny 50 10.2 33 0.7 52 52 NNW 10 17 30.15 1021 10 16.0934 0 0
7:15 pm 19:15 Sunny 50 9.9 33 0.5 52 52 NNW 13 20 30.15 1021 10 16.0934 0 0
7:35 pm 19:35 Sunny 48 9.1 33 0.6 56 56 N 9 15 30.15 1021 10 16.0934 0 0
7:55 pm 19:55 Sunny 46 7.9 34 1.2 63 63 NNE 7 11 30.18 1022 10 16.0934 0 0
8:15 pm 20:15 Clear 45 7 34 0.9 65 65 NNE 7 11 30.18 1022 10 16.0934 0 0
8:35 pm 20:35 Clear 42 5.7 33 0.5 70 70 NNE 8 13 30.21 1023 10 16.0934 0 0
8:55 pm 20:55 Clear 40 4.6 32 0.1 73 73 ENE 5 7 30.24 1024 10 16.0934 0 0
9:15 pm 21:15 Clear 40 4.2 32 0 74 74 NE 7 11 30.24 1024 10 16.0934 0 0
9:35 pm 21:35 Clear 38 3.1 32 -0.1 80 80 ENE 6 9 30.24 1024 10 16.0934 0 0
9:55 pm 21:55 Clear 38 3.3 32 -0.1 79 79 NE 3 6 30.27 1025 10 16.0934 0 0
10:15 pm 22:15 Clear 36 2.3 31 -0.4 83 83 Calm 30.3 1026 10 16.0934 0 0
10:35 pm 22:35 Clear 36 2.1 31 -0.7 82 82 E 3 6 30.3 1026 10 16.0934 0 0
10:55 pm 22:55 Clear 36 2.4 31 -0.7 80 80 Calm 30.27 1025 10 16.0934 0 0
11:15 pm 23:15 Clear 35 1.8 31 -0.7 84 84 Calm 30.3 1026 10 16.0934 0 0
11:35 pm 23:35 Clear 36 2.3 31 -0.7 81 81 ENE 3 6 30.3 1026 10 16.0934 0 0
11:55 pm 23:55 Clear 35 1.5 30 -1 84 84 E 5 7 30.3 1026 10 16.0934 0 0

Powered by AerisWeather